Temperature
20 20 20 19 19 18 18 18 18 17 17 17 17 17 17 16 16 16 16 16 16 16 16 16 16 16 16 16 16 16 16 16 16 17 16 16 16 16 16 16 15 15 15
20 20 19 19 19 18 18 18 18 17 17 17 17 17 16 16 16 16 16 16 16 16 16 16 16 16 16 16 15 15 16 16 16 16 16 16 15 15 15 15 15 15 15
19 19 19 19 19 18 18 18 17 17 17 16 16 16 16 16 16 16 16 15 15 15 15 15 15 15 15 15 15 15 15 15 15 15 16 15 15 15 15 15 15 15 15
19 19 19 19 18 18 18 18 17 17 17 17 16 16 16 16 16 16 16 15 15 15 15 15 15 15 15 15 15 15 15 15 15 15 15 15 15 15 15 15 15 15 14
19 19 18 18 18 18 18 17 17 17 17 16 16 16 16 16 16 15 15 15 15 15 15 15 15 15 15 15 15 15 15 15 15 15 15 15 15 15 14 14 15 14 14
19 19 18 18 18 18 18 17 17 17 16 16 16 16 16 16 16 15 15 15 15 15 14 14 15 15 15 15 15 14 14 14 14 14 15 15 14 14 14 14 14 14 14
18 18 18 18 18 18 17 17 17 17 16 16 16 16 16 16 16 15 15 15 14 14 14 14 14 14 14 14 14 14 14 14 14 14 14 14 14 14 13 13 13 13 13
18 18 18 18 17 17 17 17 17 16 16 16 16 16 15 15 15 15 15 14 14 14 14 14 14 14 14 14 14 14 14 14 14 14 14 14 13 13 13 13 13 13 13
18 17 17 17 17 17 17 16 16 16 16 16 15 15 15 15 15 15 14 14 14 14 14 14 13 13 14 14 13 13 13 13 14 13 13 13 13 13 13 13 13 13 13
18 17 17 17 17 17 17 16 16 16 16 15 15 15 15 15 15 14 14 14 14 14 14 14 14 14 13 13 13 13 13 13 13 13 13 13 13 13 13 13 13 13 13
17 17 17 17 17 17 16 16 16 16 15 15 15 15 14 14 14 14 14 14 13 13 13 13 13 13 13 13 13 13 12 13 12 12 12 13 13 13 12 12 12 12 12
17 17 17 17 17 16 16 16 15 15 15 15 14 14 14 14 14 14 13 13 13 13 13 13 13 13 13 13 13 13 13 12 12 12 12 12 12 12 12 12 12 12 12
17 16 16 16 16 16 15 15 15 15 15 14 14 14 14 14 13 13 13 13 13 13 12 12 13 13 12 12 12 12 12 12 12 12 12 12 12 12 12 12 12 12 12
16 16 16 16 16 15 15 15 15 15 14 14 14 14 14 13 13 13 13 13 12 12 12 12 12 12 12 12 12 12 12 11 11 11 11 11 11 12 11 11 11 11 11
16 16 16 16 15 15 15 14 14 14 14 14 14 13 13 13 13 13 13 12 12 12 12 12 12 12 12 12 12 12 11 11 11 11 11 11 11 11 11 11 11 11 11
16 16 16 16 15 15 15 14 14 14 14 14 13 13 13 13 13 13 12 12 12 12 12 12 12 12 12 12 12 11 11 11 11 10 11 11 11 11 11 11 11 11 11
16 15 15 15 15 15 14 14 14 13 13 13 13 13 13 13 12 12 12 12 12 12 12 12 12 12 11 11 11 11 11 11 10 10 10 10 10 11 11 11 10 10 10
15 15 15 15 15 14 14 14 13 13 13 13 13 13 12 12 12 12 12 11 12 11 11 11 11 11 11 11 11 11 11 11 10 10 10 10 10 10 10 10 10 10 10
15 15 14 14 14 14 14 14 13 13 13 13 13 12 12 12 12 11 11 11 11 11 11 11 11 11 11 11 10 10 10 10 10 10 10 10 10 10 10 10 10 10 10
14 14 14 14 14 14 14 13 13 13 13 13 12 12 12 12 11 11 11 11 11 11 11 11 11 10 10 10 10 10 10 10 10 10 10 10 10 9 9 9 9 10 9
14 14 14 14 14 13 13 13 13 13 13 13 12 12 12 12 12 11 11 11 11 11 10 10 10 10 10 10 10 10 10 10 9 9 9 9 9 9 9 9 9 9 9
14 14 13 13 13 13 13 13 13 12 12 12 12 12 12 11 11 11 11 11 11 10 10 10 10 10 9 9 9 9 9 9 9 9 9 9 9 9 9 9 9 9 9
13 13 13 13 13 12 12 12 12 12 12 12 12 12 11 11 11 11 11 10 10 10 10 10 9 9 9 9 9 9 9 9 8 8 8 8 8 8 8 8 8 8 9
13 13 13 13 12 12 12 12 12 12 12 12 12 11 11 11 11 10 10 10 10 10 9 9 9 9 9 9 8 8 8 8 8 8 8 8 8 8 8 8 8 8 8
12 13 12 12 12 12 12 12 12 11 11 11 11 11 11 11 10 10 10 10 9 9 9 9 9 9 9 8 8 8 8 8 8 8 8 8 8 7 8 8 8 8 8
12 12 12 12 12 12 11 11 11 11 11 11 11 10 10 10 10 10 9 9 9 9 9 9 8 8 8 8 8 8 8 8 8 8 8 7 7 7 7 7 7 7 7
Wind_Speed
10 10 9 8 8 7 6 6 6 5 4 4 4 4 4 4 3 3 4 3 3 3 4 4 4 5 5 4 4 5 5 6 6 6 4 2 3 4 3 5 6 6 6
10 9 9 9 8 8 7 7 6 6 5 5 4 4 4 4 4 4 4 3 4 4 4 4 5 4 4 5 4 5 5 5 6 7 5 4 4 4 4 5 5 5 5
10 9 9 8 8 8 7 7 6 6 5 5 5 5 5 4 4 4 4 4 4 5 5 5 5 5 5 4 5 5 5 5 5 6 6 4 4 4 4 5 6 5 6
9 9 9 8 8 7 7 7 6 6 6 6 6 6 5 5 5 5 5 5 5 5 5 5 5 4 5 5 4 4 5 5 5 5 5 4 4 3 4 5 5 4 5
8 8 8 7 7 7 6 6 6 6 6 6 6 6 6 5 4 4 5 5 5 6 5 5 5 3 3 4 5 4 4 5 5 5 5 4 4 4 5 5 5 5 5
8 8 7 7 6 6 6 6 6 6 6 6 5 5 5 4 2 2 4 5 5 5 5 5 4 4 3 4 4 5 5 5 5 5 5 5 5 5 5 6 5 5 5
7 7 7 7 6 6 6 6 6 6 6 6 6 6 5 4 3 3 4 5 5 5 5 5 5 3 2 3 4 5 5 5 6 6 6 6 6 5 5 7 6 6 6
7 6 6 6 6 5 5 5 6 5 6 6 6 6 5 4 4 4 4 6 6 5 5 5 4 4 3 4 4 4 4 4 4 5 5 6 6 5 6 7 7 7 6
6 6 6 6 5 5 5 5 5 4 5 5 5 5 5 4 4 4 5 5 5 5 5 4 4 4 2 4 5 5 4 4 3 4 5 5 4 5 5 5 5 5 5
6 6 6 6 6 5 5 4 4 4 4 4 4 5 5 5 5 5 6 5 4 4 4 4 3 2 2 3 4 4 4 4 5 4 4 5 5 5 6 7 6 6 6
5 5 5 6 6 5 4 4 4 4 3 3 4 4 4 4 5 6 6 5 4 5 4 4 1 2 2 4 5 4 4 5 5 4 4 3 3 3 4 5 5 5 6
5 5 5 5 5 4 4 4 4 4 4 4 4 4 3 3 3 4 6 7 6 5 5 4 2 1 4 5 4 3 4 5 4 4 3 3 3 3 3 3 3 4 4
4 5 5 5 4 4 4 4 4 4 4 4 3 3 3 3 3 5 7 7 7 5 4 2 2 3 4 4 4 4 4 4 3 3 4 4 4 3 3 3 3 3 4
5 4 4 5 4 4 4 4 4 4 4 3 3 3 3 3 3 2 3 4 5 5 4 3 6 7 6 4 4 4 3 3 3 4 4 4 4 3 3 3 3 3 3
4 4 5 5 5 4 4 2 3 3 2 3 3 3 3 3 1 1 3 4 4 3 4 4 3 3 3 3 3 3 3 3 3 4 4 4 4 4 3 3 3 3 4
4 4 4 4 4 4 4 3 2 1 2 1 1 2 1 1 2 2 2 2 3 3 4 5 4 4 3 3 3 3 3 3 3 4 4 4 4 4 4 4 3 4 4
4 4 3 4 4 4 4 4 3 2 2 2 2 1 1 2 3 3 3 2 3 5 5 4 4 4 4 4 4 4 4 3 3 4 4 4 4 4 4 4 4 4 5
4 3 3 3 4 4 4 4 4 3 3 2 3 4 4 4 5 5 4 3 3 4 4 4 4 4 4 4 4 4 4 4 4 4 4 4 4 4 5 5 5 5 5
3 3 2 3 4 4 4 4 4 4 3 2 2 3 5 6 7 6 6 4 3 3 4 4 4 4 4 4 4 5 5 4 4 4 4 4 5 5 5 5 5 5 6
3 3 3 4 4 4 4 4 4 4 3 3 3 2 3 3 3 3 4 3 3 3 4 4 4 4 4 4 5 5 5 5 5 5 5 4 4 5 5 6 6 5 5
3 4 5 4 3 3 3 4 4 3 3 3 3 2 2 4 3 3 3 3 3 3 4 4 4 4 4 4 5 5 5 4 4 4 4 4 4 5 5 5 5 5 5
3 3 4 3 3 3 3 3 4 4 4 4 3 3 4 4 3 3 3 3 3 3 3 3 4 4 4 4 4 4 5 4 4 4 4 5 4 5 5 5 5 5 5
4 4 4 4 4 4 4 4 4 4 4 4 3 3 3 3 3 3 3 3 3 3 3 3 4 4 3 4 4 4 5 4 4 5 6 5 5 5 5 5 6 6 5
5 5 4 4 4 4 4 4 4 4 4 4 4 3 3 3 3 3 3 3 3 3 3 3 3 4 5 4 4 4 4 4 6 5 7 6 6 5 5 5 5 6 6
5 5 5 4 4 4 4 4 4 4 4 3 3 3 3 3 2 2 2 2 2 3 3 3 3 3 4 5 4 4 3 4 5 7 6 6 7 6 6 6 5 6 6
5 5 4 4 4 4 4 4 4 4 4 3 3 3 3 3 2 2 2 2 2 2 3 3 3 4 4 4 4 4 3 3 5 8 7 6 7 6 6 6 6 6 6
Wind_Direction
191 194 197 197 201 206 209 210 212 212 206 212 216 218 221 226 224 230 243 236 246 257 265 268 273 286 283 281 275 265 260 261 267 277 274 252 243 261 245 248 238 229 210
188 191 196 198 200 206 208 206 206 209 211 210 214 219 224 226 230 232 245 250 255 259 265 271 274 270 274 279 285 279 271 261 259 268 272 260 249 248 245 249 247 239 239
185 190 193 197 197 203 207 206 205 207 212 215 217 220 225 226 228 234 240 251 259 264 268 270 273 274 275 279 275 279 278 271 264 263 262 263 258 251 252 249 247 246 252
184 190 193 196 197 201 204 208 206 208 213 218 219 223 226 225 229 236 242 248 257 264 268 269 270 270 270 273 270 273 280 282 272 267 266 261 257 252 252 258 254 241 253
185 191 194 195 197 201 203 209 208 210 214 215 219 222 226 223 226 233 245 248 256 262 263 264 262 264 290 283 287 287 281 278 277 271 268 267 268 269 264 264 263 259 244
188 195 193 195 198 202 206 208 208 209 211 213 217 217 221 225 176 223 258 256 255 257 262 262 252 232 227 244 280 287 285 276 281 280 271 272 273 269 270 269 270 264 265
186 194 195 198 201 205 210 207 208 210 209 211 213 210 214 216 177 203 244 258 258 260 264 269 272 266 242 262 251 242 258 258 264 273 274 274 275 273 272 266 264 270 273
183 192 194 198 202 203 205 208 212 214 211 209 208 208 215 213 177 204 236 239 250 254 257 261 270 283 289 293 276 272 272 270 260 261 271 273 276 276 264 264 269 261 261
187 195 196 196 197 198 200 202 207 210 209 206 207 210 219 220 185 200 236 244 246 251 253 253 258 270 318 304 272 272 278 282 263 259 276 278 285 274 272 265 264 264 269
193 198 198 197 200 202 199 200 203 206 208 213 216 220 223 228 190 195 226 245 248 256 252 243 210 254 286 273 265 274 278 288 297 280 260 248 251 244 234 244 256 264 272
190 193 192 192 196 194 192 196 197 204 207 216 221 223 224 223 192 190 218 243 252 260 268 267 250 148 235 254 265 272 286 287 273 275 275 271 262 255 244 241 251 263 272
184 187 184 184 194 184 185 190 195 202 205 211 218 229 223 214 203 194 210 234 260 256 269 281 298 179 239 247 251 268 276 270 267 271 275 280 280 278 272 263 256 259 272
186 189 185 184 186 186 187 191 198 206 217 217 220 229 231 220 197 194 212 226 244 253 269 295 271 231 236 231 206 226 245 259 275 276 276 278 281 285 279 264 246 241 249
188 187 180 181 183 181 191 197 202 207 218 224 231 236 239 224 213 206 228 227 229 244 264 235 214 217 228 230 217 224 246 266 275 276 281 285 286 277 274 277 272 263 265
183 189 194 193 187 186 191 200 210 203 218 240 245 248 245 238 215 260 245 237 244 247 260 251 246 239 246 248 244 239 246 251 259 273 277 279 281 278 272 272 268 261 263
186 194 202 198 188 190 186 180 95 148 137 180 297 276 247 102 132 186 245 250 234 227 243 244 247 253 256 262 265 258 247 252 261 266 273 277 278 278 274 268 272 266 265
200 206 214 207 198 198 196 197 191 172 162 169 180 183 186 139 158 187 206 210 228 223 234 247 253 258 261 263 269 269 263 257 260 263 271 275 278 279 279 275 271 268 266
205 199 213 218 213 208 208 208 204 201 196 200 175 166 178 185 189 193 195 198 215 217 242 258 265 265 265 267 272 276 274 265 256 259 265 272 277 284 287 282 278 278 278
210 209 216 226 216 208 206 206 203 201 198 195 186 166 177 190 193 198 201 226 235 244 254 261 268 273 275 275 276 273 271 268 266 265 266 268 272 277 282 283 279 273 275
204 189 213 226 216 209 205 206 206 202 204 203 202 195 178 203 215 202 208 235 253 263 271 272 272 273 275 276 275 273 272 269 266 263 267 270 273 275 277 279 283 283 277
207 192 195 218 217 215 211 212 213 212 211 212 207 174 208 231 236 237 238 242 251 263 271 275 278 276 272 269 272 273 275 276 274 274 276 278 280 278 278 278 279 279 277
206 206 212 212 206 211 215 216 215 211 210 216 215 184 189 231 244 253 254 258 264 269 274 276 276 276 275 275 273 274 275 277 277 277 273 268 269 271 270 270 270 273 272
209 208 211 209 209 199 208 215 213 213 213 216 221 218 216 234 244 254 262 271 273 270 271 272 277 277 280 279 278 275 275 277 279 281 277 271 269 269 269 273 275 276 274
211 210 212 210 210 216 213 210 212 217 218 219 222 226 225 231 244 255 265 268 273 274 272 271 275 279 279 278 276 275 284 297 292 280 275 275 272 268 266 269 272 275 273
214 211 212 210 210 213 214 215 215 218 221 219 224 228 232 241 252 261 273 274 276 283 286 284 286 289 288 291 294 299 335 328 304 289 269 264 267 268 270 271 270 271 271
212 210 212 213 216 212 212 217 219 221 223 225 231 234 239 244 256 263 272 283 292 295 294 289 289 291 293 294 305 323 331 309 299 294 276 263 265 266 268 267 268 264 266
Height
1525 1527 1529 1530 1532 1534 1535 1535 1536 1537 1538 1538 1538 1539 1539 1539 1539 1539 1539 1539 1539 1539 1538 1538 1537 1537 1537 1537 1536 1536 1535 1535 1534 1534 1533 1532 1531 1531 1530 1530 1529 1529 1528
1522 1524 1526 1528 1529 1531 1532 1532 1533 1534 1535 1536 1536 1537 1537 1537 1537 1537 1537 1537 1536 1536 1536 1535 1535 1534 1533 1533 1533 1532 1532 1531 1531 1530 1529 1529 1528 1527 1527 1526 1526 1526 1525
1519 1521 1523 1524 1526 1527 1529 1530 1530 1531 1532 1533 1533 1534 1534 1534 1534 1534 1534 1534 1534 1534 1533 1532 1532 1531 1530 1530 1529 1529 1529 1529 1528 1527 1526 1525 1525 1524 1523 1523 1523 1522 1522
1517 1519 1520 1521 1523 1524 1525 1526 1527 1528 1529 1529 1530 1531 1531 1531 1531 1531 1531 1531 1531 1531 1530 1529 1529 1528 1528 1527 1527 1526 1526 1525 1525 1524 1523 1522 1522 1521 1520 1520 1520 1519 1519
1514 1516 1517 1519 1520 1521 1522 1523 1524 1524 1526 1526 1527 1527 1528 1529 1529 1528 1528 1528 1528 1527 1527 1526 1525 1525 1524 1524 1524 1524 1523 1522 1522 1521 1520 1519 1519 1518 1517 1517 1516 1516 1515
1510 1513 1515 1516 1517 1518 1519 1520 1521 1521 1522 1523 1523 1524 1525 1526 1525 1525 1525 1525 1525 1524 1524 1523 1522 1522 1521 1521 1520 1520 1519 1519 1518 1517 1516 1516 1514 1514 1513 1513 1513 1512 1511
1508 1510 1512 1513 1514 1515 1516 1517 1517 1518 1519 1519 1520 1520 1521 1521 1522 1522 1522 1522 1522 1521 1521 1520 1520 1520 1518 1517 1517 1516 1516 1515 1514 1514 1512 1511 1511 1510 1510 1509 1509 1508 1507
1505 1507 1509 1510 1511 1512 1513 1513 1514 1514 1515 1515 1516 1516 1517 1518 1518 1518 1518 1518 1518 1518 1517 1517 1516 1516 1515 1514 1513 1513 1512 1512 1511 1510 1508 1507 1507 1506 1505 1505 1505 1504 1503
1503 1505 1507 1508 1509 1509 1510 1510 1511 1511 1512 1512 1513 1513 1514 1514 1515 1515 1515 1515 1515 1514 1514 1513 1512 1512 1511 1510 1510 1509 1509 1508 1507 1506 1505 1504 1502 1502 1501 1502 1501 1501 1500
1501 1502 1504 1505 1506 1507 1507 1508 1509 1509 1509 1510 1511 1511 1511 1511 1511 1511 1511 1512 1512 1511 1511 1510 1509 1508 1507 1507 1507 1506 1505 1504 1503 1502 1501 1500 1499 1498 1498 1498 1498 1498 1498
1499 1500 1501 1502 1503 1504 1505 1505 1506 1506 1507 1507 1507 1508 1507 1507 1507 1508 1508 1508 1508 1508 1508 1507 1506 1505 1504 1503 1503 1503 1502 1501 1500 1499 1498 1497 1496 1495 1495 1494 1494 1494 1495
1496 1498 1499 1500 1501 1502 1502 1502 1503 1503 1504 1504 1504 1504 1504 1504 1504 1504 1504 1504 1504 1504 1504 1504 1503 1502 1501 1500 1500 1499 1499 1498 1498 1497 1496 1495 1494 1493 1492 1491 1490 1490 1490
1495 1496 1496 1497 1498 1499 1499 1499 1500 1500 1501 1501 1501 1501 1501 1501 1501 1500 1501 1501 1501 1501 1501 1500 1499 1499 1498 1498 1497 1496 1496 1496 1495 1494 1493 1493 1492 1490 1489 1487 1487 1486 1486
1492 1493 1494 1495 1496 1496 1496 1497 1498 1498 1498 1498 1498 1498 1498 1497 1497 1497 1497 1497 1497 1498 1498 1497 1496 1496 1495 1495 1495 1494 1493 1493 1492 1492 1491 1490 1489 1488 1487 1486 1485 1484 1484
1489 1490 1492 1493 1493 1493 1493 1494 1495 1495 1495 1495 1495 1495 1494 1494 1493 1493 1493 1493 1494 1494 1494 1494 1494 1494 1493 1493 1492 1491 1491 1490 1489 1489 1488 1487 1486 1485 1484 1483 1482 1482 1481
1487 1488 1490 1490 1491 1491 1491 1492 1491 1492 1492 1492 1492 1492 1492 1491 1490 1490 1491 1491 1491 1490 1491 1492 1491 1491 1490 1490 1489 1489 1488 1487 1487 1486 1485 1484 1483 1482 1482 1481 1480 1479 1478
1484 1485 1487 1488 1488 1488 1489 1489 1489 1489 1489 1489 1489 1489 1489 1489 1488 1488 1488 1488 1488 1488 1488 1489 1489 1488 1488 1487 1487 1486 1485 1485 1484 1483 1483 1482 1481 1480 1479 1478 1477 1477 1476
1482 1483 1484 1484 1485 1485 1486 1487 1487 1487 1486 1486 1487 1486 1486 1486 1486 1486 1485 1485 1485 1485 1486 1486 1486 1486 1485 1484 1484 1483 1482 1482 1481 1480 1480 1479 1479 1478 1477 1476 1475 1474 1473
1479 1480 1481 1482 1482 1483 1483 1484 1484 1485 1484 1484 1484 1484 1484 1484 1484 1484 1483 1484 1484 1484 1483 1483 1483 1483 1482 1482 1481 1480 1479 1478 1478 1477 1477 1476 1475 1475 1474 1473 1472 1471 1470
1476 1477 1478 1479 1480 1480 1480 1481 1482 1482 1482 1482 1482 1482 1482 1482 1482 1482 1481 1481 1481 1481 1481 1480 1480 1479 1479 1478 1477 1477 1476 1476 1475 1474 1474 1473 1472 1471 1471 1470 1469 1468 1467
1473 1474 1474 1475 1476 1477 1477 1478 1479 1479 1479 1480 1480 1480 1479 1480 1480 1480 1479 1479 1478 1478 1477 1477 1477 1476 1476 1475 1474 1473 1473 1472 1472 1471 1470 1469 1468 1468 1467 1467 1466 1465 1465
1470 1471 1471 1472 1472 1473 1474 1475 1476 1476 1476 1477 1478 1478 1477 1477 1478 1477 1477 1476 1476 1475 1474 1474 1474 1473 1472 1471 1471 1470 1469 1469 1468 1468 1467 1466 1465 1465 1464 1463 1463 1462 1462
1466 1468 1469 1469 1469 1470 1470 1472 1473 1473 1474 1474 1475 1475 1475 1475 1475 1475 1474 1473 1473 1472 1471 1471 1470 1469 1469 1468 1467 1467 1466 1465 1465 1464 1463 1463 1462 1462 1461 1460 1459 1459 1458
1463 1464 1465 1466 1466 1467 1468 1468 1469 1470 1471 1471 1472 1472 1472 1472 1472 1471 1471 1470 1469 1469 1468 1467 1467 1466 1465 1464 1463 1463 1462 1461 1460 1460 1459 1459 1458 1458 1457 1456 1456 1455 1455
1460 1461 1462 1462 1463 1464 1465 1466 1467 1467 1468 1468 1468 1469 1469 1469 1469 1468 1467 1466 1465 1465 1464 1464 1463 1462 1461 1460 1459 1458 1457 1456 1456 1456 1455 1455 1454 1454 1453 1453 1452 1452 1451
1456 1457 1458 1459 1460 1461 1462 1463 1464 1464 1465 1465 1465 1465 1466 1466 1465 1465 1464 1463 1462 1461 1461 1460 1459 1459 1458 1457 1455 1454 1453 1452 1451 1451 1451 1450 1450 1450 1449 1449 1448 1448 1448